{"data":{"norad_id":56709,"intl_designator":"2023-067X","name":"STARLINK-30085","alt_names":[],"object_type":"PAYLOAD","status":"ACTIVE","operator":null,"country":"US","launch_date":"2023-05-19","launch_site_code":"AFETR","launch_vehicle":null,"mission":null,"orbit_class":"UNKNOWN","rcs_meters":null,"size_class":null,"mass_kg":null,"dimensions":null,"purposes":["comms"],"wikipedia_slug":null,"has_3d_model":false,"image_url":null,"decayed_at":null,"tle_current":{"epoch":"2026-09-20T16:10:00.212448Z","epoch_age_seconds":99895,"freshness":"FRESH","line1":"1 56709U 23067X   26263.67361357 -.00000165  00000+0  35259-5 0  9993","line2":"2 56709  43.0025 249.6059 0000964 272.5982  87.4759 15.27574031185269","mean_motion":15.27574031,"eccentricity":9.64e-5,"inclination_deg":43.0025,"raan_deg":249.6059,"arg_perigee_deg":272.5982,"mean_anomaly_deg":87.4759,"bstar":3.5259e-6,"rev_number":18526,"period_min":94.267117061248,"perigee_km":482.40554936854,"apogee_km":483.72838949384,"semimajor_km":6861.2039694312,"source":"CELESTRAK","updated_at":"2026-09-21T09:00:33.484895Z"}}}